Regional Weather Roundup
Issued by NWS Sterling, VA

Home | Current Version | Previous Version | Graphics & Text | Print | Product List | Glossary On
Versions: 1 2 3 4 5 6 7 8 9 10 11 12 13 14 15 16 17 18 19 20 21 22 23 24 25 26 27
000
ASUS41 KLWX 192011
RWRLWX

REGIONAL WEATHER ROUNDUP
NATIONAL WEATHER SERVICE BALTIMORE MD/WASHINGTON DC
400 PM EDT WED JUL 19 2017

Note: "FAIR" indicates few or no clouds below 12,000 feet
with no significant weather and/or obstructions to visibility.
 TC=TEMPERATURE CELSIUS

 * =Non NWS site. Station does not report precipitation (e.g. rain,
    snow, etc.), thunder, or fog.

DCZ001-MDZ009-015-VAZ040>042-051-053>054-192100-
WASHINGTON METRO

CITY           SKY/WX    TMP DP  RH WIND       PRES   REMARKS
WASHINGTON NAT PTSUNNY   94  73  50 S10       30.01F HX 103
DULLES         MOSUNNY   92  69  47 NW6       30.03F HX  97
ANDREWS AFB    MOSUNNY   92  67  44 SW7       30.01F HX  95
FT BELVOIR     SUNNY     94  71  47 S5        30.01F HX 100
QUANTICO       MOSUNNY   92  73  53 S7        30.02F HX 100
COLLEGE PARK*  MOSUNNY   92  65  40 CALM      30.01F HX  94
LEESBURG*      MOSUNNY   95  72  46 W5        30.04F HX 103
MANASSAS*      SUNNY     93  68  43 VRB3      30.03F HX  97
GAITHERSBURG*  MOSUNNY   91  71  51 CALM      30.05F HX  97

$$

MDZ006>007-011-014-192100-
BALTIMORE METRO

CITY           SKY/WX    TMP DP  RH WIND       PRES   REMARKS
BWI AIRPORT    CLOUDY    90  71  53 E15G26    30.00F HX  96
MD SCIENCE CTR   N/A     91  73  55 MISG      30.01F HX  99
MARTIN STATE   MOSUNNY   86  75  70 S8        30.02F HX  95
ANNAPOLIS      MOSUNNY   86  76  71 SE13      30.01F HX  96
FORT MEADE*      N/A     93  64  38 SW6       30.03F HX  95

$$

MDZ012-015-019>023-192100-
MARYLAND EASTERN SHORE

CITY           SKY/WX    TMP DP  RH WIND       PRES   REMARKS
OCEAN CITY     SUNNY     83  76  79 S9        30.04F HX  91
SALISBURY      MOSUNNY   90  75  62 SE12      30.02F HX 100
BAY BRIDGE AP* SUNNY     95  72  46 SE8       30.01F HX 103
CAMBRIDGE*     MOSUNNY   90  73  58 VRB7      30.02F HX  98
EASTON*        MOSUNNY   93  68  43 W7        30.06F HX  97

$$

MDZ017>025-192100-
SOUTHERN MARYLAND

CITY           SKY/WX    TMP DP  RH WIND       PRES   REMARKS
PATUXENT RIVER MOSUNNY   89  76  65 SE12      30.02F HX 100
ST INIGOES     SUNNY     90  72  55 VRB7      30.02F HX  97
LEONARDTOWN*   PTSUNNY  N/A N/A N/A SW5       30.04F

$$

MDZ003>005-192100-
NORTH CENTRAL MARYLAND

CITY           SKY/WX    TMP DP  RH WIND       PRES   REMARKS
FREDERICK*     SUNNY     93  63  36 SW6       30.05F HX  94
HAGERSTOWN APT PTSUNNY   91  65  41 VRB5      30.04F HX  93
WESTMINSTER*   SUNNY     93  68  43 W9        30.05F HX  97

$$

MDZ501>502-192100-
WESTERN MARYLAND

CITY           SKY/WX    TMP DP  RH WIND       PRES   REMARKS
OAKLAND*       SUNNY     79  63  57 NW5       30.18F
CUMBERLAND*    SUNNY     93  63  36 W3        30.08F HX  94

$$

VAZ025>031-192100-
SHENANDOAH VALLEY

CITY           SKY/WX    TMP DP  RH WIND       PRES   REMARKS
WINCHESTER*    SUNNY     88  70  55 E8        30.05F HX  92
FRONT ROYAL*   MOSUNNY   91  66  43 E5        30.04F HX  94
LURAY*         SUNNY     91  66  43 S3        30.06F HX  94
NEW MARKET*    MOSUNNY   92  60  34 CALM      30.03F HX  92
STAUNTON*      SUNNY     90  61  38 NE6       30.10F HX  90
WAYNESBORO*    SUNNY     91  57  31 CALM      30.10F HX  90

$$

WVZ021-048>050-054>055-192100-
EASTERN WEST VIRGINIA PANHANDLE

CITY           SKY/WX    TMP DP  RH WIND       PRES   REMARKS
MARTINSBURG    SUNNY     92  61  35 VRB5      30.03F HX  92
PETERSBURG*    PTSUNNY   94  63  35 NW7       30.06F HX  95

$$

VAZ036>039-050-192100-
CENTRAL FOOTHILLS

CITY           SKY/WX    TMP DP  RH WIND       PRES   REMARKS
CHARLOTTESVILL MOSUNNY   92  66  42 CALM      30.05F HAZE    HX  94
CULPEPER*      SUNNY     93  69  45 N6        30.04F HX  97
ORANGE*        MOSUNNY   91  66  43 N3        30.04F HX  94
GORDONSVILLE*  SUNNY     94  63  35 CALM      30.03F HX  95
WARRENTON*     SUNNY     93  63  36 CALM      30.03F HX  94

$$

VAZ055>057-192100-
NORTH AND CENTRAL PIEDMONT

CITY           SKY/WX    TMP DP  RH WIND       PRES   REMARKS
FREDERICKSBRG* SUNNY     94  69  43 SE3       30.01F HX  98
STAFFORD*      SUNNY     93  64  37 W3        30.07F HX  95

$$

NCZ024-NYZ072-PAZ021-071-VAZ022-071-192100-
OTHER REGIONAL OBSERVATIONS

CITY           SKY/WX    TMP DP  RH WIND       PRES   REMARKS
NEW YORK CITY  MOSUNNY   90  64  42 VRB3      30.00F HX  91
PHILADELPHIA   MOSUNNY   93  66  40 SW14      29.99F HX  96
PITTSBURGH     MOSUNNY   88  68  51 W8        30.07F HX  91
ROANOKE        MOSUNNY   92  59  33 NW8       30.10F HX  91
RICHMOND       MOSUNNY   94  65  38 S5        30.02F HX  96
RALEIGH        MOSUNNY   92  65  40 NE7       30.05F HX  94

$$

ANZ530>537-192100-
MARINE OBSERVATIONS

STATION/POSITION TIME  TEMP    WIND        PRES
                       AIR SEA DIR/SP/G
                 (UTC) (F)     (DEG/KT/KT) (MB)
THOMAS PT LIGHT  2000   86 84  170/  9/ 10   N/A
BALT KEY BRIDGE  1948   83      80/  8/ 11 1016.1F
COVE POINT       1948   83     180/ 11/ 13 1017.5F
LEWISETTA        1948   85 87  120/  9/ 10 1016.9F
SOLOMONS ISLAND  1948   86 84  120/ 10/ 12   N/A
PINEY POINT      1942          160/  9/ 10   N/A

$$





USA.gov is the U.S. government's official web portal to all federal, state and local government web resources and services.